IOD1_STARTICAL

导读

IOD-1(IOD1_STARTICAL)是西班牙葡萄牙合资企业Startical研制的首颗技术验证卫星,作为欧盟资助ECHOES项目组成部分,于2025年3月成功发射。卫星由GomSpace制造,属于立方卫星,搭载甚高频天线与ADS-B监视系统,核心任务是验证太空信号实时传输技术,探索空域管理优化方案,助力提升航空运行效率、降低燃料消耗,推动航空业向更可持续方向发展,为后续IOD-2卫星部署奠定技术基础。

Basic Information
目录编号:
63212
目录名称:
IOD1_STARTICAL
国际标识:
2025-052C
轨道中心:
EARTH
卫星名称:
IOD1_STARTICAL
卫星全名:
IOD1_STARTICAL
卫星状态:
在轨 (已飞行459 天)
发射日期:
2025-03-15 UTC
国别 :
西班牙 (ES)
星等 :
--
Orbit Information
数据来源 国际轨道数据 AOE轨道数据
星历时间 2026-06-17T07:21:40+0800
10小时前
查看轨道信息
2026-06-12T16:00:00+0800
5天前
查看轨道信息
半长轴 6784.626km 6786.129km
偏心率 0.0004237 0.0004345
轨道倾角 97.383° 97.383°
近地点辐角 109.791° 116.291°
升交点赤经 69.666° 64.892°
平近点角 250.380° 234.800°
近地点 403.614km 405.043km
远地点 409.364km 410.941km
周期 92.693分钟 92.724分钟
每日圈数 15.535096 15.529936
Detailed Information
使用方式:
暂无
2D Orbit Map
3D Orbit Map
Orbit Altitude Analysis Chart
Orbit Inclination Analysis Chart
Orbit Comprehensive Analysis Chart
View Comprehensive Chart